Location: Iesi
(43.5167°N, 13.2333°E)
Time: 18:59:04
(UTC+00:00)

IRIDIUM 104 - Pass Details

Date: 08 August 2020
Orbit: 776 x 779 km, 86.4° (Epoch: 24 September)

Event Time Altitude Azimuth Distance (km) Brightness Sun altitude
Rises 19:22:59 0° 177° (S) 3,247 7.2 -10.8°
Reaches altitude 10° 19:25:19 10° 176° (S) 2,324 6.4 -11.2°
Maximum altitude 19:30:31 79° 91° (E) 800 4.3 -11.9°
Drops below altitude 10° 19:35:45 10° 6° (N) 2,342 7.2 -12.7°
Sets 19:38:07 0° 5° (N) 3,274 8.0 -13.1°
